Location: Lake Sonoma
(38.7200°N, 123.0564°W)
Time: 01:01:54
(UTC-07:00)

Amateur Radio Satellites - All Passes

Search period start: 01 May 2016 00:31
Search period end: 02 May 2016 00:31
Location: Lake Sonoma, 38.7200°N, 123.0564°W

Satellite Date Start Highest point End Downlink Frequencies (MHz)
Time Altitude Azimuth
JAS-2 01 May 00:35:16 00:38:54 14° 86° (E) 00:42:32 435.910
DX 1 01 May 00:36:10 00:40:18 42° 261° (W) 00:44:28 434.975-435.025
UKube-1 01 May 00:46:45 00:50:47 39° 261° (W) 00:54:52 .
ANTELSAT 01 May 00:50:06 00:52:52 17° 294° (WNW) 00:55:35 437.575/2403.000
AISAT 01 May 01:04:45 01:07:54 19° 266° (W) 01:11:06 437.250
SWISSCUBE 01 May 01:07:58 01:08:59 11° 61° (ENE) 01:10:00 437.505
QB50P2 01 May 01:09:44 01:13:48 44° 287° (WNW) 01:17:48 145.880/145.840
POLYITAN 1 01 May 01:11:53 01:15:55 44° 287° (WNW) 01:19:54 437.675
DUCHIFAT 1 01 May 01:12:22 01:16:27 48° 287° (WNW) 01:20:29 145.980
POPSAT HIP 1 01 May 01:15:06 01:19:07 41° 287° (WNW) 01:23:04 437.405
ESTCUBE 1 01 May 01:16:42 01:18:07 11° 270° (W) 01:19:31 437.505/2401.250
Cosmos 2499 01 May 01:17:28 01:23:49 36° 88° (E) 01:30:07 435.465 / 435.565
QB50P1 01 May 01:18:37 01:22:32 37° 288° (WNW) 01:26:25 145.935-145.965
SPROUT 01 May 01:20:48 01:24:42 34° 262° (W) 01:28:40 437.525
O/OREOS (USA 219) 01 May 01:35:20 01:39:51 67° 67° (ENE) 01:44:18 437.305
BEESAT 01 May 01:38:39 01:42:08 21° 66° (ENE) 01:45:37 436.000
GONETS M04 01 May 01:39:40 01:48:32 83° 278° (W) 01:57:26
CUSAT 1 01 May 01:42:38 01:48:25 26° 71° (ENE) 01:54:44 437.405
NANOSAT C BR1 01 May 01:55:43 01:58:21 16° 294° (WNW) 02:00:58 145.865
Oscar 19 01 May 01:55:46 02:00:13 28° 96° (E) 02:04:38 437.125/150
AIST 1 01 May 01:56:13 02:00:04 31° 283° (WNW) 02:03:58
PCSat 01 May 01:58:00 02:03:28 82° 62° (ENE) 02:08:53 145.827
TISAT 1 01 May 02:02:34 02:06:31 38° 262° (W) 02:10:31 437.305
BUGSAT 1 01 May 02:03:38 02:07:10 27° 291° (WNW) 02:10:40 437.445
DANDE 01 May 02:06:35 02:11:01 19° 71° (ENE) 02:16:00 436.750
JAS-2 01 May 02:17:02 02:24:52 78° 103° (ESE) 02:32:41 435.910
ITUPSAT 1 01 May 02:30:47 02:35:31 69° 74° (ENE) 02:40:16 437.325
RS-15 01 May 02:31:15 02:39:21 20° 346° (NNW) 02:47:43 29.354- 29.394
SWISSCUBE 01 May 02:41:20 02:46:04 82° 256° (WSW) 02:50:51 437.505
KKS-1 01 May 02:42:11 02:43:21 11° 62° (ENE) 02:44:31 437.445
ITAMSAT 1 01 May 03:09:59 03:14:06 23° 95° (E) 03:18:11 435.822/435.867
Cosmos 2499 01 May 03:10:26 03:16:49 35° 286° (WNW) 03:23:14 435.465 / 435.565
Gurwin Techsat 1B 01 May 03:12:30 03:17:47 63° 101° (ESE) 03:23:02 435.225
BEESAT 3 01 May 03:15:04 03:17:16 14° 45° (NE) 03:19:27 437.485
BEESAT 01 May 03:15:10 03:19:38 40° 262° (W) 03:24:06 436.000
O/OREOS (USA 219) 01 May 03:18:13 03:18:35 10° 263° (W) 03:18:58 437.305
BEESAT 2 01 May 03:20:01 03:20:21 10° 41° (NE) 03:20:42 435.950
CUSAT 1 01 May 03:23:45 03:30:51 66° 265° (W) 03:38:49 437.405
Oscar 19 01 May 03:34:53 03:39:30 33° 292° (WNW) 03:44:05 437.125/150
GONETS M04 01 May 03:41:45 03:46:46 16° 298° (WNW) 03:51:49
PCSat 01 May 03:44:08 03:46:05 12° 258° (WSW) 03:48:02 145.827
DANDE 01 May 03:47:39 03:54:09 81° 263° (W) 04:02:10 436.750
JAS-2 01 May 04:03:21 04:09:03 23° 300° (WNW) 04:14:50 435.910
MOZHAYETS 4 01 May 04:03:37 04:08:01 50° 73° (ENE) 04:12:27
AO-7 01 May 04:11:32 04:18:58 35° 98° (E) 04:26:21 29.400- 29.500
ITUPSAT 1 01 May 04:12:24 04:13:47 11° 270° (W) 04:15:10 437.325
KKS-1 01 May 04:14:49 04:19:17 73° 257° (WSW) 04:23:47 437.445
STARS 01 May 04:36:50 04:41:16 81° 255° (WSW) 04:45:45 437.465
ITAMSAT 1 01 May 04:48:52 04:53:39 39° 290° (WNW) 04:58:26 435.822/435.867
RS-15 01 May 04:49:01 04:58:12 24° 23° (NNE) 05:07:29 29.354- 29.394
BEESAT 3 01 May 04:51:26 04:55:19 55° 242° (WSW) 04:59:08 437.485
Gurwin Techsat 1B 01 May 04:53:56 04:57:11 17° 298° (WNW) 05:00:25 435.225
BEESAT 2 01 May 04:54:49 04:58:50 88° 67° (ENE) 05:02:47 435.950
CUSAT 1 01 May 05:10:17 05:12:00 11° 279° (W) 05:13:46 437.405
DANDE 01 May 05:33:27 05:36:28 13° 274° (W) 05:39:41 436.750
HORYU 2 01 May 05:34:41 05:38:55 44° 99° (E) 05:43:07 437.375
MOZHAYETS 4 01 May 05:42:58 05:45:27 14° 268° (W) 05:47:57
CUBESAT XI-V 01 May 05:43:15 05:47:46 62° 75° (ENE) 05:52:21 437.345
NOAA 18 01 May 06:02:01 06:04:28 13° 91° (E) 06:06:53 137.9125
AO-7 01 May 06:03:57 06:11:53 51° 295° (WNW) 06:19:50 29.400- 29.500
YUBILEINY 01 May 06:07:58 06:16:10 44° 75° (ENE) 06:24:21 435.215
AIST 2 01 May 06:10:53 06:14:48 39° 54° (NE) 06:18:41 435.215
STRAND 1 01 May 06:17:29 06:20:13 15° 62° (ENE) 06:22:56 437.568
LilacSat-2 01 May 06:34:40 06:36:49 14° 93° (E) 06:38:58 437.200
BRITE-PL 01 May 06:40:57 06:45:45 27° 94° (E) 06:50:27 437.365/2234.400
Cubesat XI-IV 01 May 06:47:17 06:51:47 27° 96° (E) 06:56:16 437.490
Cosmos 2491 01 May 06:48:52 06:56:57 43° 87° (E) 07:05:04 435.465 / 435.565
NOAA 15 01 May 06:51:42 06:56:50 47° 100° (E) 07:01:56 137.62
Cosmos 2504 01 May 06:57:49 07:03:25 22° 69° (ENE) 07:09:14 435.465 / 435.565
RS-15 01 May 07:01:50 07:14:01 61° 52° (NE) 07:26:08 29.354- 29.394
HORYU 2 01 May 07:12:21 07:15:06 16° 295° (WNW) 07:17:51 437.375
SO-50 01 May 07:17:55 07:22:07 29° 112° (ESE) 07:26:22 436.795
CUBESAT XI-V 01 May 07:23:58 07:25:33 12° 270° (W) 07:27:08 437.345
ISS 01 May 07:32:30 07:35:07 23° 132° (SE) 07:37:45 145.825
NOAA 18 01 May 07:40:11 07:45:38 74° 286° (WNW) 07:51:03 137.9125
CUTE-I 01 May 07:42:49 07:48:09 87° 283° (WNW) 07:53:29 437.470
M-CUBED/EXP-1 PRIME 01 May 07:49:37 07:53:06 30° 101° (E) 07:56:21 437.505
AIST 2 01 May 07:50:12 07:52:58 17° 250° (WSW) 07:55:44 435.215
STRAND 1 01 May 07:53:44 07:58:48 67° 258° (WSW) 08:03:53 437.568
PRISM 01 May 07:57:02 08:00:20 24° 69° (ENE) 08:03:40 437.425
AO-7 01 May 08:01:25 08:02:42 10° 316° (NW) 08:03:59 29.400- 29.500
GOMX 1 01 May 08:01:46 08:07:16 77° 102° (ESE) 08:12:30 467.674
YUBILEINY 01 May 08:05:00 08:12:47 38° 274° (W) 08:20:35 435.215
DOVE 4 01 May 08:07:16 08:12:08 42° 97° (E) 08:16:45 437.250
LilacSat-2 01 May 08:07:47 08:11:14 33° 288° (WNW) 08:14:39 437.200
AUBIESAT-1 01 May 08:09:42 08:13:26 43° 104° (ESE) 08:16:52 437.475
BRITE-PL 01 May 08:18:57 08:24:15 40° 290° (WNW) 08:29:28 437.365/2234.400
Cubesat XI-IV 01 May 08:27:05 08:31:51 35° 291° (WNW) 08:36:38 437.490
HO-68 01 May 08:28:56 08:34:56 28° 95° (E) 08:40:53 435.675
CUTE 1.7 + AOD 2 01 May 08:29:11 08:32:07 18° 93° (E) 08:35:03 437.475
NOAA 15 01 May 08:32:17 08:36:15 22° 296° (WNW) 08:40:13 137.62
Cosmos 2491 01 May 08:45:36 08:53:44 40° 286° (WNW) 09:01:57 435.465 / 435.565
Cosmos 2504 01 May 08:49:48 08:57:19 69° 266° (W) 09:05:24 435.465 / 435.565
SO-50 01 May 08:58:03 09:02:31 34° 309° (NW) 09:07:00 436.795
SEEDS 01 May 08:59:05 09:02:45 29° 96° (E) 09:06:24 437.485
CINEMA 3 01 May 09:03:43 09:08:15 48° 99° (E) 09:12:31 145.822/145.860
COMPASS 1 01 May 09:05:53 09:09:19 24° 95° (E) 09:12:43 437.405
ISS 01 May 09:08:25 09:11:27 35° 328° (NNW) 09:14:29 145.825
RS-15 01 May 09:14:59 09:26:02 42° 253° (WSW) 09:37:02 29.354- 29.394
M-CUBED/EXP-1 PRIME 01 May 09:24:39 09:27:26 18° 299° (WNW) 09:30:04 437.505
CUTE-I 01 May 09:25:55 09:27:22 11° 301° (WNW) 09:28:50 437.470
UNISAT 6 01 May 09:29:48 09:31:48 13° 63° (ENE) 09:33:46 437.425
CANX-2 01 May 09:30:46 09:34:58 72° 285° (WNW) 09:39:10 2200.000
PRISM 01 May 09:32:17 09:35:35 24° 264° (W) 09:38:54 437.425
AAUSAT CUBESAT 2 01 May 09:38:00 09:42:01 47° 99° (E) 09:46:00 437.432
GOMX 1 01 May 09:41:46 09:44:34 14° 299° (WNW) 09:47:20 467.674
Oscar 11 01 May 09:43:25 09:46:43 21° 94° (E) 09:50:00 145.826/435.025
AUBIESAT-1 01 May 09:45:33 09:47:28 13° 301° (WNW) 09:49:20 437.475
DOVE 4 01 May 09:45:35 09:49:29 22° 294° (WNW) 09:53:14 437.250
TIGRISAT 01 May 09:46:39 09:49:47 18° 66° (ENE) 09:52:54 435.000
FUNcube-1 01 May 09:52:37 09:55:49 21° 94° (E) 09:58:58 145.935
UWE-3 01 May 09:58:46 10:02:48 40° 98° (E) 10:06:44 435.000/436.395/437.385
CUBEBUG 2 01 May 10:02:28 10:06:48 68° 100° (E) 10:10:59 437.445
CUTE 1.7 + AOD 2 01 May 10:04:14 10:08:02 33° 288° (WNW) 10:11:50 437.475
ANTELSAT 01 May 10:09:37 10:13:45 32° 70° (ENE) 10:17:51 437.575/2403.000
HO-68 01 May 10:15:59 10:22:52 52° 292° (WNW) 10:29:43 435.675
ZACube-1 01 May 10:33:11 10:37:24 69° 101° (ESE) 10:41:31 437.345
POPSAT HIP 1 01 May 10:33:53 10:34:41 10° 63° (ENE) 10:35:30 437.405
SEEDS 01 May 10:35:06 10:38:17 21° 291° (WNW) 10:41:27 437.485
QB50P1 01 May 10:36:35 10:38:03 12° 64° (ENE) 10:39:32 145.935-145.965
COMPASS 1 01 May 10:41:24 10:44:47 24° 290° (WNW) 10:48:10 437.405
CINEMA 3 01 May 10:42:06 10:44:54 16° 296° (WNW) 10:47:37 145.822/145.860
ISS 01 May 10:47:44 10:48:40 11° 347° (NNW) 10:49:36 145.825
UNISAT 6 01 May 11:03:19 11:07:58 66° 259° (W) 11:12:33 437.425
DELFI C3 01 May 11:05:15 11:09:16 86° 280° (W) 11:13:15 145.870
PHONESAT 2.4 01 May 11:06:03 11:09:00 38° 156° (SSE) 11:11:58 2401.200-2431.200
NANOSAT C BR1 01 May 11:09:59 11:13:32 26° 69° (ENE) 11:17:06 145.865
Cosmos 2499 01 May 11:11:28 11:13:41 11° 62° (ENE) 11:15:57 435.465 / 435.565
AAUSAT CUBESAT 2 01 May 11:15:01 11:17:05 14° 294° (WNW) 11:19:10 437.432
BUGSAT 1 01 May 11:17:52 11:20:14 15° 65° (ENE) 11:22:37 437.445
Oscar 11 01 May 11:19:05 11:22:51 30° 290° (WNW) 11:26:36 145.826/435.025
TIGRISAT 01 May 11:21:40 11:26:08 44° 261° (W) 11:30:33 435.000
FUNcube-1 01 May 11:28:28 11:32:03 28° 290° (WNW) 11:35:36 145.935
ESTCUBE 1 01 May 11:31:50 11:34:17 14° 92° (E) 11:36:43 437.505/2401.250
UWE-3 01 May 11:36:19 11:38:54 16° 294° (WNW) 11:41:27 435.000/436.395/437.385
CUBEBUG 2 01 May 11:42:05 11:42:46 10° 298° (WNW) 11:43:28 437.445
ANTELSAT 01 May 11:46:45 11:50:28 23° 265° (W) 11:54:09 437.575/2403.000
HUMSAT D 01 May 11:50:51 11:54:52 59° 286° (WNW) 11:58:52 437.325/437.525
GONETS M04 01 May 11:51:59 12:00:21 47° 76° (ENE) 12:08:37
QB50P2 01 May 12:00:24 12:04:41 74° 258° (WSW) 12:09:00 145.880/145.840
CUBEBUG 1 01 May 12:00:38 12:03:59 21° 94° (E) 12:07:18 437.445
DUCHIFAT 1 01 May 12:02:20 12:06:36 82° 258° (WSW) 12:10:53 145.980
POLYITAN 1 01 May 12:02:32 12:06:49 73° 257° (WSW) 12:11:08 437.675
AIST 1 01 May 12:03:57 12:08:17 51° 80° (E) 12:12:34
POPSAT HIP 1 01 May 12:05:36 12:09:52 69° 259° (W) 12:14:10 437.405
QB50P1 01 May 12:09:03 12:13:17 61° 259° (W) 12:17:32 145.935-145.965
VELOX 1 01 May 12:23:02 12:27:11 36° 98° (E) 12:31:17 145.980
DX 1 01 May 12:25:35 12:29:37 34° 98° (E) 12:33:35 434.975-435.025
JAS-2 01 May 12:28:55 12:33:51 28° 63° (ENE) 12:39:18 435.910
UKube-1 01 May 12:35:01 12:39:02 35° 98° (E) 12:43:00 .
AO-85 01 May 12:38:46 12:43:14 27° 111° (ESE) 12:47:44 145.980
PHONESAT 2.4 01 May 12:42:39 12:45:48 69° 353° (N) 12:48:57 2401.200-2431.200
NANOSAT C BR1 01 May 12:45:41 12:49:11 25° 264° (W) 12:52:43 145.865
50 SAT 01 May 12:49:45 12:53:25 81° 283° (WNW) 12:57:04 437.505
BUGSAT 1 01 May 12:51:09 12:55:12 46° 261° (W) 12:59:19 437.445
AISAT 01 May 12:54:39 12:59:10 89° 99° (E) 13:03:37 437.250
Gurwin Techsat 1B 01 May 12:57:06 12:58:23 11° 59° (ENE) 12:59:41 435.225
Cosmos 2499 01 May 13:00:24 13:08:07 69° 81° (E) 13:16:25 435.465 / 435.565
ESTCUBE 1 01 May 13:06:58 13:11:20 50° 287° (WNW) 13:15:43 437.505/2401.250
SPROUT 01 May 13:07:47 13:11:53 42° 99° (E) 13:15:57 437.525
Oscar 19 01 May 13:11:10 13:15:52 36° 69° (ENE) 13:20:35 437.125/150
CUBEBUG 1 01 May 13:36:19 13:40:19 33° 289° (WNW) 13:44:17 437.445
AIST 1 01 May 13:43:37 13:45:21 12° 276° (W) 13:47:04
TISAT 1 01 May 13:47:45 13:51:37 34° 98° (E) 13:55:26 437.305
GONETS M04 01 May 13:49:12 13:56:53 36° 275° (W) 14:04:30
VELOX 1 01 May 14:00:09 14:03:22 20° 294° (WNW) 14:06:35 145.980
ISS 01 May 14:01:04 14:03:47 24° 28° (NNE) 14:06:30 145.825
DX 1 01 May 14:02:19 14:05:33 20° 293° (WNW) 14:08:46 434.975-435.025
UKube-1 01 May 14:11:43 14:14:49 19° 294° (WNW) 14:17:54 .
JAS-2 01 May 14:13:03 14:18:34 44° 263° (W) 14:24:49 435.910
AO-85 01 May 14:18:20 14:23:33 44° 307° (NW) 14:28:44 145.980
PHONESAT 2.4 01 May 14:19:40 14:22:50 69° 9° (N) 14:25:58 2401.200-2431.200
ITAMSAT 1 01 May 14:26:35 14:31:07 32° 68° (ENE) 14:35:40 435.822/435.867
Gurwin Techsat 1B 01 May 14:32:11 14:37:30 86° 76° (ENE) 14:42:51 435.225
ITUPSAT 1 01 May 14:33:31 14:36:56 19° 94° (E) 14:40:21 437.325
SWISSCUBE 01 May 14:43:15 14:47:19 28° 96° (E) 14:51:23 437.505
SPROUT 01 May 14:44:52 14:47:28 16° 294° (WNW) 14:50:05 437.525
Oscar 19 01 May 14:51:00 14:55:13 25° 265° (W) 14:59:29 437.125/150
Cosmos 2499 01 May 14:55:01 15:00:32 22° 277° (W) 15:06:20 435.465 / 435.565
PCSat 01 May 14:58:54 15:00:48 12° 102° (ESE) 15:02:42 145.827
AO-7 01 May 15:09:04 15:16:42 43° 63° (ENE) 15:24:21 29.400- 29.500
BEESAT 01 May 15:16:12 15:20:52 56° 100° (E) 15:25:33 436.000
TISAT 1 01 May 15:24:02 15:27:01 19° 293° (WNW) 15:29:58 437.305
ISS 01 May 15:37:15 15:40:22 40° 224° (SW) 15:43:26 145.825
O/OREOS (USA 219) 01 May 15:45:54 15:50:29 80° 290° (WNW) 15:55:07 437.305
SO-50 01 May 15:50:46 15:54:19 20° 45° (NE) 15:57:47 436.795
PHONESAT 2.4 01 May 15:56:38 15:59:38 39° 204° (SSW) 16:02:37 2401.200-2431.200
MOZHAYETS 4 01 May 16:01:41 16:03:46 13° 91° (E) 16:05:49
ITAMSAT 1 01 May 16:06:05 16:10:32 29° 264° (W) 16:15:01 435.822/435.867
KKS-1 01 May 16:07:43 16:11:19 23° 95° (E) 16:14:53 437.445
ITUPSAT 1 01 May 16:10:27 16:14:55 40° 289° (WNW) 16:19:21 437.325
Gurwin Techsat 1B 01 May 16:17:32 16:18:04 10° 271° (W) 16:18:36 435.225
SWISSCUBE 01 May 16:20:58 16:25:03 29° 292° (WNW) 16:29:06 437.505
CUSAT 1 01 May 16:28:13 16:31:17 37° 287° (WNW) 16:35:12 437.405
STARS 01 May 16:28:28 16:31:43 20° 94° (E) 16:34:57 437.465
HORYU 2 01 May 16:31:21 16:35:25 35° 70° (ENE) 16:39:29 437.375
PCSat 01 May 16:38:00 16:43:25 82° 298° (WNW) 16:48:52 145.827
BEESAT 01 May 16:55:28 16:58:11 15° 297° (WNW) 17:00:53 436.000
DANDE 01 May 16:58:55 17:01:31 38° 284° (WNW) 17:04:38 436.750
Cosmos 2491 01 May 17:01:42 17:07:37 19° 64° (ENE) 17:13:28 435.465 / 435.565
AO-7 01 May 17:01:44 17:09:25 41° 260° (W) 17:17:09 29.400- 29.500
CUTE-I 01 May 17:25:52 17:29:11 17° 62° (ENE) 17:32:28 437.470
NOAA 18 01 May 17:26:05 17:30:26 24° 65° (ENE) 17:34:46 137.9125
SO-50 01 May 17:30:33 17:35:06 50° 244° (WSW) 17:39:28 436.795
MOZHAYETS 4 01 May 17:36:47 17:41:15 56° 286° (WNW) 17:45:43
CUBESAT XI-V 01 May 17:42:07 17:45:15 17° 93° (E) 17:48:23 437.345
KKS-1 01 May 17:43:58 17:47:51 30° 291° (WNW) 17:51:43 437.445
BRITE-PL 01 May 17:50:49 17:54:35 23° 66° (ENE) 17:58:36 437.365/2234.400
STARS 01 May 18:04:10 18:08:09 34° 289° (WNW) 18:12:05 437.465
Cubesat XI-IV 01 May 18:07:51 18:12:48 40° 70° (ENE) 18:17:44 437.490
HORYU 2 01 May 18:08:46 18:12:02 20° 266° (W) 18:15:20 437.375
NOAA 15 01 May 18:10:22 18:15:34 66° 73° (ENE) 18:20:49 137.62
PCSat 01 May 18:24:58 18:27:40 14° 317° (NW) 18:30:23 145.827
M-CUBED/EXP-1 PRIME 01 May 18:33:40 18:38:00 38° 66° (ENE) 18:42:20 437.505
BEESAT 3 01 May 18:41:03 18:44:33 31° 114° (ESE) 18:48:04 437.485
BEESAT 2 01 May 18:46:26 18:49:25 21° 112° (ESE) 18:52:26 435.950
LilacSat-2 01 May 18:47:41 18:51:35 88° 270° (W) 18:55:29 437.200
AUBIESAT-1 01 May 18:53:20 18:57:49 50° 68° (ENE) 19:02:17 437.475
Cosmos 2491 01 May 18:56:44 19:05:36 86° 264° (W) 19:14:22 435.465 / 435.565
HO-68 01 May 18:57:41 19:02:29 20° 57° (ENE) 19:07:17 435.675
CUTE-I 01 May 19:03:26 19:08:41 62° 259° (WSW) 19:13:58 437.470
NOAA 18 01 May 19:05:33 19:10:47 44° 260° (W) 19:16:02 137.9125
YUBILEINY 01 May 19:06:55 19:15:16 53° 90° (E) 19:23:37 435.215
GOMX 1 01 May 19:07:52 19:12:45 68° 75° (ENE) 19:18:01 467.674
DOVE 4 01 May 19:10:41 19:15:18 37° 70° (ENE) 19:20:07 437.250
CUBESAT XI-V 01 May 19:18:22 19:22:49 43° 288° (WNW) 19:27:16 437.345
CUTE 1.7 + AOD 2 01 May 19:22:13 19:23:45 12° 64° (ENE) 19:25:16 437.475
BRITE-PL 01 May 19:28:27 19:32:47 37° 264° (W) 19:37:31 437.365/2234.400
Cosmos 2504 01 May 19:37:35 19:41:38 16° 81° (E) 19:45:37 435.465 / 435.565
Cubesat XI-IV 01 May 19:48:43 19:52:57 24° 265° (W) 19:57:13 437.490
SEEDS 01 May 19:50:19 19:53:08 18° 67° (ENE) 19:55:57 437.485
NOAA 15 01 May 19:53:05 19:55:47 14° 269° (W) 19:58:30 137.62
COMPASS 1 01 May 19:56:31 19:58:50 15° 66° (ENE) 20:01:10 437.405
CINEMA 3 01 May 20:03:10 20:07:49 40° 71° (ENE) 20:12:30 145.822/145.860
STRAND 1 01 May 20:05:35 20:10:30 46° 99° (E) 20:15:23 437.568
M-CUBED/EXP-1 PRIME 01 May 20:08:53 20:12:34 23° 261° (W) 20:16:16 437.505
AIST 2 01 May 20:10:05 20:11:10 11° 108° (ESE) 20:12:16 435.215
BEESAT 3 01 May 20:19:11 20:22:17 22° 311° (NW) 20:25:24 437.485
CANX-2 01 May 20:21:51 20:26:02 65° 76° (ENE) 20:30:13 2200.000
BEESAT 2 01 May 20:23:31 20:27:05 31° 308° (NW) 20:30:41 435.950
AAUSAT CUBESAT 2 01 May 20:27:17 20:30:42 26° 70° (ENE) 20:34:09 437.432
AUBIESAT-1 01 May 20:29:31 20:32:28 17° 263° (W) 20:35:25 437.475
Oscar 11 01 May 20:37:50 20:40:16 15° 66° (ENE) 20:42:43 145.826/435.025
HO-68 01 May 20:42:13 20:49:23 80° 255° (WSW) 20:56:34 435.675
FUNcube-1 01 May 20:47:17 20:50:06 17° 66° (ENE) 20:52:55 145.935
DOVE 4 01 May 20:48:54 20:53:02 25° 267° (W) 20:57:19 437.250
GOMX 1 01 May 20:49:07 20:51:23 13° 272° (W) 20:53:44 467.674
UWE-3 01 May 20:54:06 20:58:10 31° 70° (ENE) 21:02:11 435.000/436.395/437.385
CUTE 1.7 + AOD 2 01 May 20:54:56 20:59:05 57° 260° (W) 21:03:15 437.475
JUGNU 01 May 20:55:16 20:57:14 12° 181° (S) 20:59:12 437.505
Cosmos 2491 01 May 20:56:30 21:01:00 15° 284° (WNW) 21:05:29 435.465 / 435.565
CUBEBUG 2 01 May 20:58:29 21:03:03 49° 73° (ENE) 21:07:35 437.445
YUBILEINY 01 May 21:04:45 21:12:21 32° 289° (WNW) 21:19:57 435.215
AO-85 01 May 21:12:30 21:15:37 17° 42° (NE) 21:18:34 145.980
PRISM 01 May 21:14:11 21:18:13 47° 100° (E) 21:22:15 437.425
RS-15 01 May 21:24:13 21:34:18 41° 107° (ESE) 21:44:51 29.354- 29.394
SEEDS 01 May 21:24:44 21:28:34 35° 263° (W) 21:32:24 437.485
Cosmos 2504 01 May 21:26:44 21:34:05 77° 278° (W) 21:41:16 435.465 / 435.565
ZACube-1 01 May 21:27:08 21:31:29 46° 73° (ENE) 21:35:46 437.345
COMPASS 1 01 May 21:30:07 21:34:02 42° 261° (W) 21:37:59 437.405
CINEMA 3 01 May 21:41:12 21:45:02 22° 267° (W) 21:48:54 145.822/145.860
AIST 2 01 May 21:45:01 21:49:06 61° 302° (WNW) 21:53:13 435.215
STRAND 1 01 May 21:45:38 21:49:19 21° 295° (WNW) 21:53:01 437.568
DELFI C3 01 May 21:49:54 21:53:38 43° 73° (ENE) 21:57:22 145.870
SRMSAT 01 May 21:53:00 21:54:38 11° 175° (S) 21:56:16 437.500
AAUSAT CUBESAT 2 01 May 22:02:54 22:06:09 22° 265° (W) 22:09:25 437.432
Oscar 11 01 May 22:11:52 22:16:00 46° 261° (W) 22:20:10 145.826/435.025
FUNcube-1 01 May 22:21:38 22:25:59 45° 261° (W) 22:30:18 145.935
UWE-3 01 May 22:30:47 22:34:35 24° 265° (W) 22:38:21 435.000/436.395/437.385
ESTCUBE 1 01 May 22:31:19 22:32:59 12° 63° (ENE) 22:34:40 437.505/2401.250
HO-68 01 May 22:35:40 22:38:04 12° 272° (W) 22:40:28 435.675
CUBEBUG 2 01 May 22:36:59 22:39:53 16° 268° (W) 22:42:46 437.445
HUMSAT D 01 May 22:40:15 22:44:29 77° 77° (ENE) 22:48:41 437.325/437.525
PRISM 01 May 22:50:58 22:53:07 14° 295° (WNW) 22:55:17 437.425
AO-85 01 May 22:51:58 22:56:39 65° 242° (WSW) 23:00:53 145.980
CUBEBUG 1 01 May 22:56:11 22:58:44 15° 65° (ENE) 23:01:18 437.445
UNISAT 6 01 May 22:57:02 23:00:42 27° 96° (E) 23:04:20 437.425
ZACube-1 01 May 23:05:15 23:07:57 15° 268° (W) 23:10:38 437.345
TIGRISAT 01 May 23:14:39 23:18:44 40° 98° (E) 23:22:44 435.000
VELOX 1 01 May 23:19:12 23:22:58 28° 69° (ENE) 23:26:46 145.980
DX 1 01 May 23:20:02 23:23:38 26° 68° (ENE) 23:27:14 434.975-435.025
Cosmos 2504 01 May 23:26:40 23:28:41 11° 298° (WNW) 23:30:43 435.465 / 435.565
DELFI C3 01 May 23:27:03 23:28:43 12° 268° (W) 23:30:23 145.870
50 SAT 01 May 23:27:11 23:30:32 34° 73° (ENE) 23:33:52 437.505
UKube-1 01 May 23:28:31 23:32:05 26° 69° (ENE) 23:35:41 .
RS-15 01 May 23:35:10 23:46:15 58° 309° (NW) 23:58:02 29.354- 29.394
ANTELSAT 01 May 23:38:49 23:43:10 83° 103° (ESE) 23:47:26 437.575/2403.000
SRMSAT 01 May 23:41:11 23:42:53 11° 185° (S) 23:44:35 437.500
PCSat 01 May 23:47:16 23:48:04 10° 39° (NE) 23:48:51 145.827
QB50P2 01 May 23:47:37 23:50:42 19° 94° (E) 23:53:45 145.880/145.840
DUCHIFAT 1 01 May 23:49:00 23:51:47 17° 93° (E) 23:54:32 145.980
POLYITAN 1 01 May 23:49:45 23:52:50 20° 94° (E) 23:55:55 437.675
AISAT 01 May 23:50:24 23:54:48 66° 75° (ENE) 23:59:15 437.250
POPSAT HIP 1 01 May 23:52:34 23:55:45 20° 94° (E) 23:58:55 437.405
QB50P1 01 May 23:55:45 23:59:08 23° 95° (E) 00:02:28 145.935-145.965
SPROUT 02 May 00:00:14 00:03:55 28° 70° (ENE) 00:07:36 437.525
ESTCUBE 1 02 May 00:04:47 00:09:13 65° 259° (WSW) 00:13:41 437.505/2401.250
O/OREOS (USA 219) 02 May 00:19:22 00:22:08 16° 56° (NE) 00:24:52 437.305
